Home   Weather   Rostov-on-Don   Past weeks

Flag for Russia Past Weather in Rostov-on-Don, Russia — Yesterday and Last 2 Weeks

30 °F


Feels Like: 19 °F
Forecast: 29 / 40 °F
Wind: 15 mph from East

Location: Rostov-Na-Donu

Current Time: Oct 25, 2016 at 2:42:44 AM

Latest Report: Oct 25, 2016 at 2:00 AM

Visibility: 5 mi

Pressure: 30.72 "Hg

Humidity: 55%

Dew Point: 16 °F

Location of Rostov-on-DonLocation

Past Weather in Rostov-on-Don — Graph


Rostov-on-Don Temperature Yesterday

Maximum temperature yesterday: 50 °F (at 12:30 PM)
Minimum temperature yesterday: 34 °F (at 11:00 PM)
Average temperature yesterday: 41 °F

High & Low Weather Summary for the Past Weeks

High61 °F (Oct 11, 2:00 PM)100% (Oct 14, 4:00 AM)30.72 "Hg (Oct 14, 4:00 AM)
Low30 °F (Oct 18, 12:00 AM)36% (Oct 11, 1:30 PM)29.89 "Hg (Oct 14, 3:30 AM)
Average42 °F69%30.34 "Hg
* Reported Oct 10 1:00 AM — Oct 25 1:00 AM, Rostov-on-Don, Weather by CustomWeather, © 2016

Note: Actual official high and low records may vary slightly from our data, if they occured in-between our weather recording intervals... More about our weather records


Rostov-on-Don Weather History for the Previous 24 Hours

Scroll right to see more
Time TempWeatherWind HumidityBarometerVisibility
1:00 AM
Tue, Oct 25
32 °FClear.17 mph51%30.72 "Hg5 mi
12:30 AM32 °FClear.20 mph51%30.72 "Hg5 mi
12:00 AM34 °FClear.20 mph48%30.69 "Hg5 mi
11:30 PM
Mon, Oct 24
34 °FClear.20 mph51%30.69 "Hg5 mi
11:00 PM34 °FClear.20 mph51%30.69 "Hg5 mi
10:30 PM36 °FClear.20 mph48%30.69 "Hg5 mi
10:00 PM36 °FClear.20 mph48%30.69 "Hg5 mi
9:30 PM36 °FClear.20 mph48%30.69 "Hg5 mi
9:00 PM37 °FClear.22 mph45%30.69 "Hg5 mi
8:30 PM39 °FClear.22 mph45%30.69 "Hg5 mi
8:00 PM39 °FClear.20 mph45%30.66 "Hg5 mi
7:30 PM39 °FClear.20 mph48%30.66 "Hg5 mi
7:00 PM41 °FClear.22 mph49%30.66 "Hg5 mi
6:30 PM41 °FClear.20 mph49%30.66 "Hg5 mi
6:00 PM43 °FPassing clouds.20 mph49%30.66 "Hg5 mi
5:30 PM43 °FPassing clouds.13 mph49%30.63 "Hg5 mi
5:00 PM45 °FPassing clouds.17 mph46%30.63 "HgN/A
4:30 PM46 °FPassing clouds.26 mph43%30.63 "HgN/A
4:00 PM46 °FPassing clouds.24 mph43%30.60 "HgN/A
3:00 PM48 °FPassing clouds.29 mph43%30.60 "HgN/A
2:30 PM48 °FPassing clouds.26 mph46%30.60 "HgN/A
2:00 PM48 °FPassing clouds.24 mph46%30.57 "HgN/A
1:30 PM48 °FPassing clouds.26 mph50%30.57 "HgN/A
1:00 PM48 °FPassing clouds.26 mph46%30.57 "HgN/A
12:30 PM50 °FSunny.24 mph43%30.57 "Hg10 mi
12:00 PM48 °FSunny.26 mph46%30.57 "Hg10 mi
11:00 AM46 °FSunny.26 mph50%30.57 "Hg10 mi
10:30 AM46 °FSunny.22 mph53%30.57 "Hg10 mi
10:00 AM43 °FSunny.20 mph61%30.57 "Hg10 mi
9:00 AM41 °FSunny.20 mph66%30.57 "Hg10 mi
8:30 AM39 °FPassing clouds.20 mph70%30.57 "HgN/A
8:00 AM39 °FPassing clouds.20 mph70%30.57 "HgN/A
7:30 AM39 °FScattered clouds.20 mph70%30.54 "HgN/A
7:00 AM39 °FSunny.20 mph75%30.54 "Hg10 mi
6:30 AM41 °FPassing clouds.17 mph70%30.51 "Hg5 mi
6:00 AM39 °FSprinkles. Passing clouds.17 mph75%30.51 "Hg5 mi
5:00 AM39 °FPassing clouds.15 mph75%30.51 "Hg5 mi
4:30 AM39 °FSprinkles. Passing clouds.15 mph75%30.51 "Hg5 mi
4:00 AM39 °FPassing clouds.17 mph70%30.48 "Hg5 mi
3:30 AM39 °FPassing clouds.17 mph70%30.48 "Hg5 mi
3:00 AM39 °FPassing clouds.15 mph70%30.48 "Hg5 mi
2:30 AM39 °FClear.17 mph70%30.48 "Hg5 mi
2:00 AM39 °FPassing clouds.17 mph70%30.48 "Hg5 mi
Weather by CustomWeather, © 2016

See weather overviewHow to use our weather pages